Location: Napier
(39.4830°S, 176.9170°E)
Time: 02:54:13
(UTC+12:00)

DELTA 2 R/B (1) - Pass Details

Date: 15 August 2020
Orbit: 791 x 802 km, 39.6° (Epoch: 19 September)

Event Time Altitude Azimuth Distance (km) Brightness Sun altitude
Rises 19:23:20 0° 274° (W) 3,295 8.3 -21.5°
Reaches altitude 10° 19:25:49 10° 273° (W) 2,368 7.2 -22.0°
Maximum altitude 19:31:26 89° 182° (S) 805 3.5 -23.1°
Enters shadow 19:32:36 58° 95° (E) 930 3.5 -23.3°
